Weather History for Thermopolis, WY

Change the Weather History Date:

Wednesday, December 14, 2011

  Actual Average (KWRL) Record (KWRL)
Temperature  
Mean Temperature 24 °F 17 °F  
Max Temperature 26 °F 30 °F 57 °F (2003)
Min Temperature 21 °F 4 °F -20 °F (1972)
Degree Days  
Heating Degree Days 42 48  
Month to date heating degree days 641  
Since 1 July heating degree days 2533  
Cooling Degree Days 0 0  
Month to date cooling degree days 0  
Year to date cooling degree days 535  
Moisture  
Dew Point 15 °F    
Average Humidity 69    
Maximum Humidity 86    
Minimum Humidity 55    
Precipitation  
Precipitation 0.00 in 0.01 in 0.28 in (1989)
Month to date precipitation 0.11  
Year to date precipitation 7.45  
Sea Level Pressure  
Sea Level Pressure 29.96 in    
Wind  
Wind Speed 6 mph ()    
Max Wind Speed 16 mph    
Max Gust Speed -    
Visibility 10.0 miles    
Events      
T = Trace of Precipitation, MM = Missing Value Source: Averaged Metar Reports

Daily Weather History Graph

Daily Weather History Graph

Search for Another Location

Airport:

Trip Planner

Search our weather history database for the weather conditions in past years. The results will help you decide how hot, cold, wet, or windy it might be!

Date:

Astronomy

Dec. 14, 2011 Rise Set
Actual Time 7:38 AM MST 4:37 PM MST
Civil Twilight 7:05 AM MST 5:09 PM MST
Nautical Twilight 6:29 AM MST 5:45 PM MST
Astronomical Twilight 5:54 AM MST 6:20 PM MST
Moon 9:06 PM MST (12/14) 10:19 AM MST (12/14)
Length of Visible Light 10h 04m
Length of Day
8h 59m
Waning Gibbous, 83% of the Moon is Illuminated
Dec 14
Waning Gibbous
Dec 17
Last Quarter
Dec 24
New
Dec 31
First Quarter
Jan 9
Full

Hourly Weather History & Observations

Time (MST) Temp. Windchill Dew Point Humidity Pressure Visibility Wind Dir Wind Speed Gust Speed Precip Events Conditions
12:15 AM 23.0 °F - 12.2 °F 63% 29.84 in 10.0 mi North - - N/A   Clear
12:35 AM 21.2 °F - 14.0 °F 74% 29.83 in 10.0 mi North - - N/A   Clear
1:15 AM 23.0 °F - 14.0 °F 68% 29.82 in 10.0 mi North - - N/A   Clear
1:35 AM 23.0 °F - 14.0 °F 68% 29.81 in 10.0 mi North - - N/A   Clear
1:55 AM 23.0 °F - 12.2 °F 63% 29.82 in 10.0 mi North - - N/A   Clear
2:15 AM 23.0 °F - 14.0 °F 68% 29.81 in 10.0 mi North - - N/A   Clear
2:35 AM 21.2 °F - 14.0 °F 74% 29.80 in 10.0 mi North - - N/A   Clear
2:55 AM 21.2 °F - 14.0 °F 74% 29.81 in 10.0 mi North - - N/A   Clear
3:15 AM 23.0 °F - 12.2 °F 63% 29.81 in 10.0 mi North - - N/A   Clear
3:35 AM 26.6 °F 18.2 °F 12.2 °F 55% 29.81 in 10.0 mi NW 8.1 mph - N/A   Clear
3:55 AM 24.8 °F - 12.2 °F 59% 29.80 in 10.0 mi North - - N/A   Clear
4:15 AM 26.6 °F - 12.2 °F 55% 29.80 in 10.0 mi North - - N/A   Clear
4:35 AM 24.8 °F - 12.2 °F 59% 29.80 in 10.0 mi North - - N/A   Clear
4:55 AM 24.8 °F - 12.2 °F 59% 29.81 in 10.0 mi North - - N/A   Clear
5:15 AM 24.8 °F - 12.2 °F 59% 29.81 in 10.0 mi North - - N/A   Clear
5:35 AM 24.8 °F - 12.2 °F 59% 29.82 in 10.0 mi North - - N/A   Clear
5:55 AM 24.8 °F - 12.2 °F 59% 29.82 in 10.0 mi North - - N/A   Clear
6:15 AM 24.8 °F - 12.2 °F 59% 29.83 in 10.0 mi North - - N/A   Clear
6:35 AM 24.8 °F - 12.2 °F 59% 29.83 in 10.0 mi North - - N/A   Clear
6:55 AM 24.8 °F - 12.2 °F 59% 29.84 in 10.0 mi North - - N/A   Clear
7:15 AM 23.0 °F - 12.2 °F 63% 29.85 in 10.0 mi North - - N/A   Clear
7:35 AM 23.0 °F - 12.2 °F 63% 29.85 in 10.0 mi North - - N/A   Mostly Cloudy
7:55 AM 24.8 °F - 12.2 °F 59% 29.86 in 10.0 mi North - - N/A   Overcast
8:15 AM 26.6 °F - 12.2 °F 55% 29.87 in 10.0 mi North - - N/A   Overcast
8:35 AM 24.8 °F - 12.2 °F 59% 29.88 in 10.0 mi North - - N/A   Overcast
8:55 AM 26.6 °F - 12.2 °F 55% 29.90 in 10.0 mi North - - N/A   Overcast
9:15 AM 26.6 °F - 12.2 °F 55% 29.91 in 10.0 mi North - - N/A   Overcast
9:35 AM 24.8 °F - 12.2 °F 59% 29.92 in 10.0 mi North - - N/A   Overcast
9:55 AM 26.6 °F - 12.2 °F 55% 29.93 in 10.0 mi North - - N/A   Overcast
10:15 AM 26.6 °F 20.0 °F 14.0 °F 59% 29.94 in 10.0 mi NNE 5.8 mph - N/A   Overcast
10:55 AM 26.6 °F - 14.0 °F 59% 29.96 in 10.0 mi North - - N/A   Overcast
11:15 AM 26.6 °F - 14.0 °F 59% 29.97 in 10.0 mi North - - N/A   Overcast
11:35 AM 26.6 °F - 15.8 °F 64% 29.96 in 10.0 mi North - - N/A   Overcast
11:55 AM 26.6 °F - 15.8 °F 64% 29.97 in 10.0 mi North - - N/A   Overcast
12:15 PM 26.6 °F - 15.8 °F 64% 29.97 in 10.0 mi North - - N/A   Overcast
12:35 PM 26.6 °F - 15.8 °F 64% 29.97 in 10.0 mi North - - N/A   Overcast
12:55 PM 26.6 °F - 17.6 °F 69% 29.97 in 10.0 mi North - - N/A   Overcast
1:15 PM 24.8 °F - 17.6 °F 74% 29.98 in 10.0 mi North - - N/A   Overcast
1:35 PM 26.6 °F - 17.6 °F 69% 29.98 in 10.0 mi North - - N/A   Overcast
1:55 PM 24.8 °F - 17.6 °F 74% 29.98 in 10.0 mi North - - N/A   Overcast
2:15 PM 26.6 °F - 19.4 °F 74% 29.99 in 10.0 mi North - - N/A   Overcast
2:35 PM 26.6 °F - 17.6 °F 69% 30.00 in 10.0 mi North - - N/A   Overcast
2:55 PM 26.6 °F - 17.6 °F 69% 30.00 in 10.0 mi North - - N/A   Overcast
3:15 PM 24.8 °F - 17.6 °F 74% 30.01 in 10.0 mi North - - N/A   Overcast
3:35 PM 24.8 °F - 17.6 °F 74% 30.02 in 10.0 mi North - - N/A   Overcast
3:55 PM 24.8 °F - 19.4 °F 80% 30.03 in 10.0 mi North - - N/A   Overcast
4:15 PM 24.8 °F - 17.6 °F 74% 30.03 in 10.0 mi North - - N/A   Overcast
4:55 PM 24.8 °F - 19.4 °F 80% 30.06 in 10.0 mi North - - N/A   Overcast
5:15 PM 24.8 °F 11.9 °F 19.4 °F 80% 30.07 in 10.0 mi NW 16.1 mph - N/A   Overcast
5:35 PM 24.8 °F - 19.4 °F 80% 30.07 in 10.0 mi North - - N/A   Overcast
5:55 PM 24.8 °F - 19.4 °F 80% 30.08 in 10.0 mi North - - N/A   Overcast
6:15 PM 24.8 °F - 19.4 °F 80% 30.08 in 10.0 mi North - - N/A   Overcast
6:35 PM 24.8 °F - 19.4 °F 80% 30.09 in 10.0 mi North - - N/A   Overcast
6:55 PM 24.8 °F - 19.4 °F 80% 30.10 in 10.0 mi North - - N/A   Overcast
7:15 PM 23.0 °F - 19.4 °F 86% 30.11 in 10.0 mi North - - N/A   Overcast
7:35 PM 24.8 °F 16.9 °F 19.4 °F 80% 30.11 in 10.0 mi NNW 6.9 mph - N/A   Overcast
7:55 PM 24.8 °F - 19.4 °F 80% 30.12 in 10.0 mi North - - N/A   Overcast
8:15 PM 24.8 °F - 19.4 °F 80% 30.12 in 10.0 mi North - - N/A   Overcast
8:35 PM 24.8 °F - 19.4 °F 80% 30.12 in 10.0 mi North - - N/A   Mostly Cloudy
8:55 PM 23.0 °F - 19.4 °F 86% 30.12 in 10.0 mi North - - N/A   Scattered Clouds
9:15 PM 24.8 °F - 17.6 °F 74% 30.12 in 10.0 mi North - - N/A   Clear
9:35 PM 23.0 °F - 15.8 °F 74% 30.12 in 10.0 mi North - - N/A   Clear
9:55 PM 23.0 °F - 15.8 °F 74% 30.12 in 10.0 mi North - - N/A   Clear
10:15 PM 23.0 °F - 15.8 °F 74% 30.11 in 10.0 mi North - - N/A   Clear
10:35 PM 21.2 °F - 15.8 °F 80% 30.11 in 10.0 mi North - - N/A   Clear
10:55 PM 21.2 °F - 17.6 °F 86% 30.11 in 10.0 mi North - - N/A   Clear
11:15 PM 21.2 °F - 17.6 °F 86% 30.11 in 10.0 mi North - - N/A   Clear
11:35 PM 21.2 °F - 15.8 °F 80% 30.11 in 10.0 mi North - - N/A   Clear
11:55 PM 21.2 °F - 15.8 °F 80% 30.12 in 10.0 mi North - - N/A   Clear